User: anonymous   Login
Location: Unspecified
(0.0000°N, 0.0000°E)
Time: 20:19:34
(UTC+00:00)
Language:

GONETS M 11 (M21) - Orbit

View from above orbital plane
View from above orbital plane
View from above satellite
View from above satellite

Ground track
Ground track

The orbit is defined by the following mean orbital elements,

1 40552U          26145.63002976 +.00000000 +00000-0 +62537-3 0 00006
2 40552  82.4879  45.0455 0017354  52.5632 307.7023 12.42876567    02
Epoch (UTC): 25 May 2026 15:07:14
Eccentricity: 0.0017354
inclination: 82.4879°
perigee height: 1481 km
apogee height: 1508 km
right ascension of ascending node: 45.0455°
argument of perigee: 52.5632°
revolutions per day: 12.42876567
mean anomaly at epoch: 307.7023°

The dashed part of the orbit path shows where the satellite is in the earth's shadow,  

DLR